Weather History for Moline, IL

Change the Weather History Date:

Wednesday, June 25, 2014

  Actual Average Record
Temperature  
Mean Temperature 76 °F 74 °F  
Max Temperature 88 °F 85 °F 104 °F (1988)
Min Temperature 63 °F 64 °F 46 °F (1979)
Degree Days  
Heating Degree Days 0 0  
Month to date heating degree days 4 17  
Since 1 June heating degree days 4 17  
Since 1 July heating degree days 7317 6201  
Cooling Degree Days 11 9  
Month to date cooling degree days 168 166  
Year to date cooling degree days 273 242  
Since 1 June cooling degree days 168 166  
Growing Degree Days 26 (Base 50)    
Moisture  
Dew Point 62 °F    
Average Humidity 67    
Maximum Humidity 93    
Minimum Humidity 40    
Precipitation  
Precipitation 0.00 in 0.15 in 1.74 in (1877)
Month to date precipitation 5.10 3.71  
Year to date precipitation 16.66 17.57  
Snow  
Snow 0.00 in 0.00 in - ()
Month to date snowfall 0.0 0.0  
Since 1 June snowfall 0.0 0.0  
Since 1 July snowfall 65.1 31.6  
Snow Depth 0.00 in    
Sea Level Pressure  
Sea Level Pressure 29.96 in    
Wind  
Wind Speed 5 mph (WNW)    
Max Wind Speed 13 mph    
Max Gust Speed 20 mph    
Visibility 10 miles    
Events      
T = Trace of Precipitation, MM = Missing Value Source: NWS Daily Summary

Daily Weather History Graph

Daily Weather History Graph

Search for Another Location

Airport:

Trip Planner

Search our weather history database for the weather conditions in past years. The results will help you decide how hot, cold, wet, or windy it might be!

Date:

Astronomy

Jun. 25, 2014 Rise Set
Actual Time 5:29 AM CDT 8:39 PM CDT
Civil Twilight 4:55 AM CDT 9:13 PM CDT
Nautical Twilight 4:12 AM CDT 9:57 PM CDT
Astronomical Twilight 3:19 AM CDT 10:49 PM CDT
Moon 4:22 AM CDT (6/25) 7:10 PM CDT (6/25)
Length of Visible Light 16h 18m
Length of Day
15h 10m
Waning Crescent, 3% of the Moon is Illuminated
Jun 25
Waning Crescent
Jun 27
New
Jul 5
First Quarter
Jul 12
Full
Jul 18
Last Quarter

Hourly Weather History & Observations

Time (CDT) Temp. Heat Index Dew Point Humidity Pressure Visibility Wind Dir Wind Speed Gust Speed Precip Events Conditions
12:52 AM 68.0 °F - 64.0 °F 87% 29.93 in 10.0 mi West 4.6 mph - N/A   Clear
1:52 AM 66.9 °F - 63.0 °F 87% 29.92 in 10.0 mi Calm Calm - N/A   Clear
2:52 AM 66.9 °F - 63.0 °F 87% 29.93 in 10.0 mi Calm Calm - N/A   Clear
3:52 AM 64.9 °F - 62.1 °F 90% 29.93 in 10.0 mi Calm Calm - N/A   Clear
4:52 AM 64.0 °F - 61.0 °F 90% 29.94 in 10.0 mi Calm Calm - N/A   Clear
5:52 AM 64.9 °F - 61.0 °F 87% 29.96 in 10.0 mi Calm Calm - N/A   Clear
6:52 AM 69.1 °F - 64.9 °F 87% 29.97 in 10.0 mi WSW 3.5 mph - N/A   Clear
7:52 AM 73.0 °F - 64.0 °F 73% 29.98 in 10.0 mi Variable 3.5 mph - N/A   Clear
8:52 AM 75.9 °F - 64.0 °F 67% 29.98 in 10.0 mi WSW 3.5 mph - N/A   Clear
9:52 AM 80.1 °F 81.7 °F 64.0 °F 58% 29.98 in 10.0 mi Calm Calm - N/A   Clear
10:52 AM 84.2 °F 84.4 °F 60.8 °F 45% 29.99 in 10.0 mi WNW 9.2 mph - N/A   Clear
11:52 AM 84.9 °F 85.9 °F 63.0 °F 48% 29.98 in 10.0 mi WNW 11.5 mph - N/A   Clear
12:52 PM 86.0 °F 85.7 °F 60.1 °F 41% 29.97 in 10.0 mi NW 5.8 mph - N/A   Clear
1:52 PM 84.9 °F 85.0 °F 61.0 °F 44% 29.97 in 10.0 mi NW 8.1 mph - N/A   Mostly Cloudy
2:52 PM 87.1 °F 86.7 °F 60.1 °F 40% 29.96 in 10.0 mi WSW 6.9 mph - N/A   Clear
3:52 PM 87.1 °F 86.7 °F 60.1 °F 40% 29.96 in 10.0 mi WSW 9.2 mph - N/A   Clear
4:52 PM 87.1 °F 86.7 °F 60.1 °F 40% 29.95 in 10.0 mi WNW 10.4 mph - N/A   Clear
5:52 PM 84.9 °F 84.8 °F 60.1 °F 43% 29.95 in 10.0 mi WNW 6.9 mph - N/A   Clear
6:52 PM 84.0 °F 83.8 °F 59.0 °F 43% 29.94 in 10.0 mi West 9.2 mph - N/A   Clear
7:52 PM 82.0 °F 82.7 °F 61.0 °F 49% 29.95 in 10.0 mi NW 4.6 mph - N/A   Clear
8:52 PM 75.0 °F - 64.0 °F 69% 29.96 in 10.0 mi Calm Calm - N/A   Clear
9:52 PM 75.2 °F - 64.4 °F 69% 29.99 in 10.0 mi ENE 9.2 mph - N/A   Partly Cloudy
10:52 PM 73.0 °F - 64.9 °F 76% 29.99 in 10.0 mi East 8.1 mph - N/A   Clear
11:52 PM 70.0 °F - 64.0 °F 81% 30.00 in 10.0 mi East 6.9 mph - N/A   Clear